Theta_e
351 351 351 351 350 349 348 348 347 347 346 346 346 346 346 346 346 346 346 346 346 345 345 343 340 338 337 335 332 332 332 332 331 330 329 329 328 329 331 331 330 330 329 329 330 328 328 329 329 330 332 335 338 338 338 339 339 339 341 342 343 345 347
351 352 351 350 351 350 349 349 348 347 347 347 347 346 346 346 346 347 346 346 346 345 345 344 342 340 337 335 333 332 331 331 331 330 329 328 328 330 332 333 332 331 328 328 329 329 328 329 330 329 330 331 334 337 338 339 339 339 340 341 341 343 346
351 351 351 351 351 350 350 350 349 349 347 347 347 346 347 346 346 347 347 347 346 345 345 344 344 343 340 337 334 332 331 331 331 330 329 328 328 330 331 331 332 332 329 327 328 329 328 328 329 329 329 329 331 334 337 338 339 339 339 339 340 341 344
351 352 351 351 351 350 350 350 349 349 348 348 347 347 347 347 346 347 346 347 346 346 346 345 344 345 343 341 337 334 331 331 331 330 330 329 329 329 329 329 330 330 329 328 328 328 327 327 327 328 328 328 329 331 334 337 339 338 338 339 339 340 342
350 352 350 351 351 350 351 351 350 350 349 348 348 348 347 347 347 347 347 347 347 347 346 346 345 345 344 344 342 338 334 331 330 329 330 329 329 329 329 328 328 328 329 328 328 328 327 326 326 327 327 327 328 329 331 334 337 338 338 339 339 340 340
350 351 351 350 350 350 350 351 350 350 349 349 349 348 348 347 347 346 347 347 346 346 346 346 345 345 345 344 344 343 340 337 333 330 329 329 329 329 328 327 328 328 328 327 327 328 328 327 327 327 327 327 327 329 330 332 334 336 338 338 339 340 340
350 350 351 350 350 351 350 350 351 350 350 350 349 349 348 348 347 347 347 347 346 346 346 346 345 345 345 345 344 344 344 342 339 335 331 330 329 329 328 328 328 329 329 328 328 328 327 327 326 326 326 327 327 328 329 331 332 334 336 338 339 340 340
349 349 350 351 350 350 350 350 351 351 351 350 349 349 348 347 348 347 347 347 346 347 346 346 346 346 346 345 345 345 345 345 344 340 337 334 331 329 328 328 328 328 329 330 329 328 327 326 325 325 325 326 327 327 329 330 331 333 335 336 338 339 340
347 349 348 350 350 350 350 350 351 350 351 350 349 349 349 349 348 347 347 347 346 347 346 346 347 346 346 346 346 346 346 346 346 345 342 339 335 331 329 327 327 327 328 329 328 328 328 326 326 325 325 325 326 326 327 330 332 333 334 335 337 338 339
344 348 348 349 350 349 350 350 351 351 350 350 350 350 349 349 349 348 348 347 347 347 346 346 346 346 346 346 346 346 347 347 346 346 346 344 342 337 332 329 327 326 327 327 327 328 328 327 327 326 325 325 326 326 326 328 330 331 333 333 335 337 338
347 347 347 348 349 349 349 350 351 350 351 351 350 350 349 349 348 348 348 347 347 347 347 347 346 347 347 346 346 347 347 348 347 347 347 348 346 343 339 334 330 327 327 326 326 327 327 328 327 327 326 325 326 326 326 327 329 330 331 331 332 335 337
348 350 350 348 348 349 350 350 351 351 351 351 351 351 350 349 349 349 348 348 348 347 348 347 347 347 347 347 347 348 347 348 348 349 349 349 349 348 346 342 337 332 329 327 327 327 327 328 328 327 327 326 326 326 326 327 328 330 330 330 330 333 335
342 346 349 351 350 349 349 349 350 351 351 351 351 351 350 350 350 349 349 349 349 348 348 348 348 348 348 348 348 348 348 349 349 350 351 351 351 351 349 347 344 340 335 331 330 329 329 328 329 328 328 327 327 327 327 328 329 330 330 330 330 331 333
337 339 343 347 350 351 352 350 350 351 352 351 351 351 351 351 350 350 349 349 349 349 349 349 349 348 348 348 349 349 349 350 350 351 351 352 353 352 351 350 349 346 343 339 336 334 333 332 331 331 331 330 329 330 329 329 330 332 332 330 329 331 332
334 335 338 341 343 347 350 352 352 351 351 352 352 351 352 351 351 351 350 350 351 350 350 350 350 349 350 349 349 350 350 351 351 351 352 353 353 354 353 352 351 350 348 345 342 339 337 337 336 335 333 333 333 333 332 332 333 333 334 332 330 330 331
332 333 335 336 339 342 345 348 352 353 352 352 352 353 352 352 352 351 352 351 351 351 351 351 351 351 351 351 351 351 351 351 352 352 353 353 353 354 355 354 353 352 351 349 347 344 342 340 339 338 336 336 336 335 335 335 335 335 334 332 331 330 331
330 331 333 335 337 339 341 344 348 351 353 353 353 353 353 353 353 353 353 353 352 353 353 352 353 353 352 352 352 352 352 352 353 353 354 354 354 355 355 355 355 354 353 352 350 348 345 343 342 341 339 338 338 337 337 337 337 337 335 332 331 332 333
329 330 332 334 336 338 340 341 344 347 350 351 353 354 353 353 353 354 354 354 354 354 354 354 355 354 354 354 353 354 354 354 354 354 354 355 355 355 356 356 356 356 355 354 353 351 348 346 344 342 341 340 340 339 339 338 338 338 336 333 332 332 334
328 328 330 332 334 336 338 340 342 343 346 349 351 353 354 354 354 354 354 354 354 355 355 355 356 355 356 356 355 355 355 355 356 356 356 356 356 356 357 357 357 357 356 356 355 354 351 349 346 343 343 342 341 341 339 339 339 338 337 334 333 333 334
327 327 328 329 332 333 334 338 340 341 342 345 348 350 352 354 355 354 354 354 354 355 355 356 357 357 358 357 357 357 357 357 357 356 357 357 357 357 358 358 358 358 358 357 357 356 354 352 348 345 344 343 343 341 341 340 340 339 338 336 333 334 335
327 327 327 329 330 330 330 334 338 340 339 340 344 348 350 352 354 355 356 355 354 355 355 355 356 358 359 359 359 359 358 358 358 358 358 358 358 358 358 359 359 359 359 359 358 357 356 354 351 347 344 343 344 343 342 341 340 340 338 337 335 335 336
326 327 328 329 329 329 331 332 335 339 339 338 341 344 346 349 353 354 355 356 355 355 355 355 355 356 357 358 359 360 360 359 359 359 359 359 359 359 359 360 360 360 360 360 360 359 358 356 354 351 347 345 344 343 343 342 341 341 339 338 337 336 337
325 326 327 328 328 329 332 332 333 336 338 339 340 340 338 342 350 353 353 355 356 356 356 356 356 355 356 355 356 357 359 360 360 359 360 359 360 360 360 361 361 361 362 362 361 360 359 357 355 353 350 347 345 344 343 342 341 341 340 338 337 338 339
324 324 325 327 328 329 330 332 333 335 336 338 341 339 335 336 344 350 352 354 355 356 357 357 356 357 356 356 355 354 355 359 360 361 360 360 360 361 361 362 362 362 363 363 362 361 360 358 356 354 350 349 346 344 343 342 341 342 341 339 339 339 340
323 324 324 326 328 329 328 330 332 334 336 337 339 340 340 339 342 346 348 351 355 355 356 357 357 357 357 356 357 356 355 356 359 360 361 362 362 362 363 362 363 364 364 363 363 363 362 360 358 355 352 350 348 346 345 343 342 342 342 341 340 340 341
322 324 325 325 326 327 328 328 328 330 334 336 337 338 340 342 345 345 344 347 353 357 357 359 360 359 358 358 358 358 357 356 357 360 362 364 364 364 364 364 364 364 364 364 364 363 363 362 360 358 355 352 350 348 346 345 344 344 343 342 342 342 343
321 323 325 326 326 327 327 326 328 330 332 334 336 336 336 339 342 345 345 346 351 356 357 359 361 360 359 358 359 360 359 358 358 360 361 363 362 364 365 364 365 365 364 364 364 363 363 363 361 360 358 356 353 350 348 347 346 345 344 343 343 344 345
321 321 323 325 327 328 328 327 329 331 331 332 334 335 335 335 337 340 343 345 348 352 354 355 357 358 359 359 359 360 360 360 361 361 361 360 361 362 364 365 365 365 365 365 365 364 364 363 363 362 360 358 356 353 350 349 348 347 346 345 344 346 347
322 321 322 323 326 327 328 329 330 330 330 331 333 334 335 335 335 336 339 341 343 346 349 352 354 355 356 358 358 359 360 360 361 361 361 361 361 361 362 363 364 365 365 365 365 364 364 364 363 362 361 359 358 356 353 351 349 348 348 347 347 347 348
322 322 321 321 324 326 328 329 330 330 331 331 333 334 334 335 335 336 336 338 339 340 343 347 350 353 355 356 357 359 360 360 361 360 361 361 362 363 363 363 364 365 365 365 365 365 364 364 364 363 362 361 359 357 356 354 352 351 350 350 349 349 349
322 322 321 320 322 325 326 327 328 329 331 331 332 333 334 335 336 336 336 338 338 338 339 340 343 347 351 354 356 358 360 361 361 360 360 360 361 362 363 364 365 365 365 366 365 365 365 364 364 363 362 362 361 359 358 356 354 353 352 351 351 350 350
322 322 321 320 321 323 325 326 326 328 329 331 332 333 334 335 336 336 336 337 338 337 338 338 338 339 344 349 354 356 358 360 360 359 359 360 361 362 363 363 364 364 364 365 365 365 365 365 364 363 362 361 361 360 359 358 356 355 354 353 352 351 351
321 322 322 321 320 321 322 324 325 327 328 330 332 333 334 334 335 336 337 337 338 338 338 339 338 336 338 343 350 355 358 359 360 361 360 361 361 362 363 363 363 364 364 364 364 365 365 364 364 363 362 362 361 360 360 359 358 357 356 354 354 353 353
321 321 321 321 321 320 321 322 324 325 328 330 332 333 334 335 335 336 337 338 338 339 340 340 340 338 337 340 348 355 359 359 360 362 363 362 361 361 362 362 362 363 363 363 363 363 364 364 364 363 363 362 362 361 360 360 360 359 357 356 355 353 352
320 321 321 322 321 320 320 321 323 324 327 330 332 332 333 334 335 336 337 338 339 340 341 342 342 341 340 341 345 353 358 359 360 362 363 362 362 361 361 360 360 360 360 360 360 362 362 363 364 362 362 362 362 362 362 361 361 360 359 357 356 354 353
320 321 321 321 321 321 320 321 322 323 324 328 331 332 333 333 335 336 337 338 339 340 341 342 343 343 342 342 344 350 357 360 360 362 364 364 362 362 361 361 361 361 360 360 361 361 362 363 363 362 362 362 362 362 362 362 361 360 359 359 357 356 355
320 321 321 321 321 321 320 320 321 321 322 325 328 330 331 331 332 334 335 336 338 339 340 341 342 342 342 343 343 346 353 359 360 362 365 365 363 363 363 363 363 362 362 362 362 363 363 364 364 363 363 363 363 363 362 362 362 361 361 359 358 357 356
319 320 320 321 321 321 320 320 321 321 321 322 324 326 328 328 329 331 333 335 336 337 338 340 341 342 343 344 344 344 349 356 361 362 365 366 365 364 364 363 364 363 362 363 363 364 364 364 364 364 363 363 363 363 363 363 363 362 361 360 360 359 358
Wind_Speed
37 38 40 42 43 45 46 47 48 49 50 52 54 54 53 53 52 52 50 48 45 43 41 40 40 40 40 40 40 40 38 36 36 36 35 34 32 30 28 27 25 24 23 21 20 18 15 14 14 14 14 14 13 13 13 13 12 12 13 14 13 11 10
38 39 41 42 44 45 47 48 48 49 50 52 53 54 54 54 54 53 52 50 47 45 43 41 40 40 40 40 40 41 40 38 38 38 37 36 34 32 31 29 27 26 24 22 21 20 17 16 15 14 13 14 14 14 14 13 14 13 13 14 14 13 12
39 40 42 44 45 46 48 48 49 50 51 52 53 54 56 56 56 55 53 51 49 48 46 44 42 40 39 40 40 41 41 41 40 39 39 38 37 35 33 31 29 27 25 23 22 21 19 17 15 14 13 13 15 16 16 15 15 15 14 15 14 13 13
41 44 46 46 46 46 47 49 50 50 51 52 54 55 56 56 56 55 54 52 51 50 50 47 45 42 40 40 41 41 42 42 42 41 40 39 38 37 35 34 31 29 27 25 23 22 20 18 17 16 15 14 14 16 18 18 17 16 16 16 15 13 13
43 45 44 45 46 47 49 50 51 52 52 52 53 54 56 56 55 55 54 53 51 50 50 48 46 44 42 41 41 41 42 43 43 43 42 41 40 39 38 36 34 32 29 27 26 25 23 21 20 18 17 16 15 15 17 19 19 18 17 17 16 14 13
40 44 44 45 48 49 51 52 52 53 53 52 53 53 54 54 54 55 55 54 53 52 50 49 48 46 45 43 42 41 41 42 43 43 43 43 42 41 40 38 36 34 32 30 29 28 27 25 24 22 20 19 18 17 17 18 20 20 19 18 17 16 15
37 42 45 47 50 51 51 52 52 53 53 52 52 52 52 53 54 54 55 54 55 54 52 52 50 48 47 45 44 43 42 41 42 43 44 44 44 43 42 40 38 37 35 33 32 30 30 28 27 25 24 22 21 21 19 19 19 20 21 21 20 18 17
37 40 46 47 48 50 49 50 50 51 52 52 50 50 51 52 53 53 54 55 55 54 54 53 51 50 48 46 45 44 42 41 41 42 43 44 46 46 45 43 41 40 39 38 36 34 33 31 30 28 27 26 24 23 22 21 21 21 21 22 21 20 19
40 39 43 45 46 48 48 48 49 48 50 50 50 50 50 51 53 53 54 54 54 54 54 53 51 50 49 47 46 44 42 41 41 41 42 43 45 46 47 46 44 43 43 41 39 38 36 35 33 32 30 29 28 26 25 24 23 23 23 22 22 22 21
37 39 40 40 39 41 43 44 45 46 47 49 49 50 50 51 52 53 54 54 54 55 54 53 52 50 50 48 46 44 43 43 42 41 41 42 44 45 46 47 46 45 45 44 43 42 40 38 37 36 34 32 31 29 27 26 25 25 25 24 23 23 22
7 22 31 35 35 36 36 39 43 45 47 48 49 50 50 51 51 52 53 53 54 54 53 53 52 51 50 49 48 46 45 43 42 42 41 41 42 43 45 46 46 46 46 45 45 44 42 41 40 39 37 35 33 32 30 28 27 27 26 26 25 24 24
31 16 1 14 24 29 31 35 41 45 47 48 49 50 50 50 50 51 52 52 52 53 52 52 51 51 50 50 48 47 46 44 43 42 41 40 40 41 43 44 45 46 46 45 45 44 43 42 42 40 39 37 35 33 32 30 29 28 27 26 26 26 26
38 36 29 17 4 10 20 26 32 39 43 45 46 47 48 49 49 50 50 50 50 50 51 51 51 51 51 50 49 48 47 45 44 42 40 38 38 38 40 42 43 44 45 45 44 44 43 43 42 41 39 38 37 35 33 32 30 29 28 28 27 27 27
41 40 37 32 25 15 3 10 20 27 33 37 39 41 43 44 46 47 48 48 48 48 49 49 50 51 51 51 50 49 48 45 44 42 40 38 37 37 39 40 41 42 42 43 43 43 43 42 41 40 39 38 37 35 34 33 32 31 29 29 28 27 27
42 41 40 36 32 27 20 11 4 14 23 30 33 36 37 38 40 42 44 45 46 46 47 48 49 50 50 51 51 50 48 46 44 43 42 40 39 38 38 39 40 40 40 41 42 42 42 41 41 40 40 39 37 36 35 34 33 32 30 29 28 27 27
39 41 41 38 34 30 26 22 15 7 13 21 27 32 34 35 37 39 41 42 43 44 45 46 47 49 49 50 51 50 48 46 45 44 43 42 41 39 39 38 38 39 39 40 40 40 40 40 41 41 40 39 38 37 35 34 33 32 30 30 29 28 27
39 41 40 38 35 32 28 25 21 15 9 10 17 24 29 32 34 36 38 39 40 42 43 44 46 47 49 50 49 49 48 47 46 45 44 43 42 41 39 39 38 38 38 38 38 39 39 40 40 40 40 39 39 37 36 35 33 31 31 30 30 29 29
36 37 38 38 35 33 31 27 23 19 14 9 7 14 21 27 30 32 34 36 37 38 39 41 44 45 46 47 47 47 47 47 46 45 45 43 42 41 40 39 39 39 38 38 37 37 38 39 39 40 39 39 39 38 37 35 33 31 31 31 31 30 30
32 33 35 36 35 33 32 29 25 21 17 14 9 5 10 17 23 27 31 33 34 35 35 37 39 42 43 44 45 46 46 46 46 46 45 43 41 40 40 40 40 40 39 38 37 37 37 38 38 39 39 39 38 38 37 35 33 31 31 31 31 31 31
29 30 32 34 35 34 32 30 26 21 18 16 12 8 5 7 15 21 26 31 33 33 34 34 34 36 39 41 43 44 45 45 46 45 44 43 41 40 40 40 40 40 39 38 38 38 38 37 38 38 38 38 38 38 37 36 33 32 31 31 31 30 31
25 27 29 31 33 34 32 29 27 23 19 18 15 10 7 4 9 14 19 26 31 33 35 36 35 35 36 37 39 42 44 45 45 44 43 42 40 40 40 40 39 38 38 38 38 39 38 38 38 38 38 38 38 38 38 36 33 32 32 31 31 31 31
22 24 25 26 29 31 30 27 26 24 20 18 18 14 10 7 3 9 12 17 26 32 34 37 38 38 38 37 36 38 41 43 44 43 42 41 41 41 40 39 39 37 36 37 37 38 38 38 38 38 38 38 38 38 38 36 34 33 32 32 31 32 32
21 22 23 25 26 27 27 25 24 24 21 17 18 18 14 11 7 3 6 8 15 25 30 34 36 38 39 39 37 35 36 40 43 43 42 41 41 41 40 39 37 36 35 35 36 36 37 37 38 38 38 38 38 38 38 36 34 33 33 32 32 33 33
19 21 22 24 25 25 26 27 24 23 21 18 16 16 16 14 11 4 2 3 5 13 22 28 32 35 38 38 37 35 34 36 40 43 43 42 42 42 41 39 37 35 34 34 34 33 34 34 35 37 38 38 39 38 38 37 35 34 33 32 32 33 34
18 20 20 21 23 23 24 27 26 24 21 19 17 15 12 11 10 7 3 2 2 5 12 17 21 25 29 29 31 33 33 33 36 41 43 43 42 41 41 39 37 35 34 34 33 32 31 32 33 35 37 38 39 39 39 38 36 35 34 33 33 34 34
17 18 19 20 22 23 23 24 27 27 25 22 20 19 15 11 9 6 5 6 5 3 3 6 9 13 17 18 21 26 29 30 33 37 41 42 41 41 42 40 39 37 36 35 34 33 32 32 33 34 35 36 38 39 40 39 38 36 35 34 34 34 34
17 16 17 19 20 22 24 23 24 27 27 25 23 22 21 18 13 9 5 7 9 8 6 7 8 10 12 14 16 18 20 23 27 31 36 39 40 40 42 42 40 39 38 36 35 34 34 33 33 34 34 35 37 39 40 40 39 38 36 35 35 35 35
19 17 17 17 18 20 22 22 22 23 25 26 25 24 23 22 19 15 11 8 10 12 12 11 11 11 12 14 15 16 16 19 22 25 30 34 37 39 41 42 42 41 39 38 37 36 35 34 34 34 35 35 36 38 39 40 40 39 38 37 36 36 36
19 19 18 17 18 19 20 21 21 21 22 25 25 24 23 23 22 20 17 15 14 14 14 13 13 13 13 14 15 16 18 20 22 24 26 29 34 38 40 40 41 42 41 40 39 38 37 36 36 36 36 37 37 38 39 39 40 40 40 39 38 37 37
16 18 18 17 17 18 19 20 20 19 20 21 23 24 23 23 23 22 20 19 18 19 18 15 13 14 14 14 14 16 18 21 23 25 25 26 30 35 39 40 40 41 42 42 41 40 39 38 38 38 38 38 39 39 40 40 40 41 41 40 39 39 38
15 16 17 16 16 16 18 19 19 18 19 19 21 22 22 23 23 23 23 22 21 22 21 19 16 14 14 14 14 15 17 19 21 25 26 26 28 33 37 38 40 41 42 43 43 42 41 40 40 40 40 40 40 40 40 40 40 41 41 41 40 40 39
14 15 16 16 16 16 17 18 18 18 18 19 20 21 22 22 23 24 25 25 24 24 25 23 21 18 16 15 15 16 16 17 19 22 24 25 28 31 34 35 37 38 40 41 43 43 43 42 42 42 42 41 41 40 39 40 40 41 42 42 42 41 40
14 15 15 15 16 16 16 17 18 18 17 17 19 20 21 22 23 24 25 25 25 25 26 26 24 22 19 17 16 16 16 17 17 18 21 24 27 31 33 34 36 38 40 41 42 43 44 44 43 43 43 43 42 41 40 40 40 41 42 43 43 43 41
15 15 16 16 16 16 16 16 16 16 15 15 16 17 19 21 22 24 25 25 24 24 26 26 25 24 22 18 16 16 16 16 16 17 18 21 25 30 32 34 36 38 39 40 41 42 43 44 44 43 43 43 42 41 40 41 41 42 43 43 43 43 42
17 16 17 17 16 16 16 16 15 14 12 12 13 14 15 17 20 22 23 24 24 24 24 25 25 25 22 18 17 17 16 15 15 16 17 19 22 26 30 33 35 36 36 36 37 38 39 41 43 41 40 41 41 41 41 42 40 40 40 41 41 42 42
18 17 17 17 17 16 17 17 15 13 11 10 11 12 13 14 16 18 20 22 23 23 23 23 25 26 24 20 17 16 16 16 15 15 16 17 20 24 29 33 35 36 36 36 37 37 38 40 41 39 38 39 40 39 39 38 36 35 36 38 40 41 42
20 18 17 18 17 17 18 18 16 14 11 9 9 9 11 12 13 14 16 17 20 22 22 22 24 26 25 22 19 16 14 14 14 15 15 15 19 23 28 32 35 38 38 38 39 39 40 42 42 40 39 40 40 39 38 36 34 35 36 38 39 41 41
19 19 18 18 18 19 20 20 18 15 13 11 9 9 10 11 12 14 15 15 16 19 20 21 23 24 24 23 21 18 14 12 12 14 14 15 18 23 28 31 35 38 39 40 41 42 42 42 42 42 41 41 40 40 39 37 36 36 37 37 38 39 39
Wind_Direction
203 205 206 205 205 205 206 205 205 206 206 207 208 208 208 209 210 213 215 216 217 218 218 219 220 220 220 220 220 219 219 217 216 217 219 220 221 222 223 223 223 223 221 218 215 214 210 206 207 210 213 216 218 217 219 222 226 229 227 223 214 203 204
203 205 206 206 206 206 207 207 207 207 207 208 208 208 209 209 210 213 215 216 217 218 218 219 220 221 221 222 221 221 220 219 217 218 220 222 222 224 225 226 227 226 225 221 218 217 214 210 212 215 217 220 222 221 221 224 228 232 232 231 226 216 213
203 204 205 206 207 207 207 207 208 208 208 209 209 209 210 210 212 214 216 217 218 218 218 219 220 221 222 223 223 222 221 220 219 219 221 222 224 225 227 228 229 229 226 223 222 223 222 221 222 224 225 227 227 227 226 226 229 233 234 235 234 228 224
204 205 206 207 207 207 208 208 209 209 209 211 211 211 212 212 213 215 217 218 219 218 218 219 220 221 223 223 224 224 223 222 221 221 222 223 225 226 229 230 231 231 229 227 228 231 232 233 234 235 237 237 235 232 231 230 230 233 236 238 239 236 231
204 206 206 205 206 207 208 208 209 209 210 211 212 213 214 213 213 214 216 219 220 221 221 221 221 222 223 224 225 226 226 225 224 223 224 225 226 227 229 232 233 234 234 234 234 236 239 240 240 243 245 245 244 239 236 235 234 233 235 238 240 240 238
205 205 204 205 206 206 208 209 209 210 210 211 213 214 214 213 213 214 216 218 219 221 221 222 222 223 224 225 227 228 229 228 228 227 226 227 227 228 230 233 235 236 238 239 238 239 242 244 245 247 249 250 250 247 243 240 238 236 235 237 240 240 240
209 206 205 206 207 207 207 209 209 210 211 211 213 213 213 213 213 214 215 217 219 219 220 221 222 223 225 226 228 229 230 231 231 230 230 229 229 230 231 233 236 238 240 241 242 243 244 246 249 251 253 254 254 253 250 247 244 241 236 236 239 241 241
214 212 210 207 207 207 207 208 208 209 210 210 211 212 213 213 214 215 215 216 218 219 220 221 222 224 225 226 228 230 232 233 233 233 233 232 231 231 231 232 234 238 240 242 244 245 247 248 251 253 255 256 257 257 255 252 249 247 242 239 239 240 242
216 214 215 212 209 207 207 207 207 208 209 209 210 212 213 214 214 215 216 216 217 218 220 223 224 225 225 226 228 231 233 234 235 235 235 235 234 233 232 232 233 236 238 242 244 246 248 250 251 254 255 256 257 258 257 256 253 250 248 244 241 240 242
219 215 215 214 211 210 208 207 205 205 207 208 209 211 212 214 215 216 217 217 217 218 221 223 224 225 225 226 229 230 232 234 235 236 237 237 237 236 235 234 234 235 236 239 242 245 247 250 251 253 255 255 256 257 258 258 255 252 250 248 245 242 242
254 221 217 213 211 210 208 206 204 205 206 207 209 210 212 213 215 216 216 217 218 219 220 222 224 225 225 227 229 230 232 233 235 236 238 239 240 239 238 237 237 236 237 238 240 242 245 247 250 252 253 254 255 256 258 258 258 256 252 250 248 245 243
28 30 354 215 212 212 211 208 206 206 207 208 208 210 211 213 214 216 217 218 219 219 220 221 222 224 225 227 229 230 232 233 234 236 238 241 242 242 241 240 239 239 239 239 241 242 244 246 249 251 252 254 255 256 258 259 259 258 255 252 250 248 246
27 35 39 45 92 206 214 212 210 209 209 208 208 210 212 213 214 215 217 218 219 219 220 221 222 223 225 227 229 231 233 234 235 236 239 241 243 244 243 243 242 241 241 242 243 244 245 247 249 250 252 253 255 256 258 258 259 258 255 252 251 250 249
22 28 33 40 48 52 89 205 213 214 212 211 210 211 213 214 215 216 217 218 219 219 220 221 222 223 225 227 229 231 233 235 237 238 239 241 243 244 244 243 243 243 243 243 244 245 247 248 249 251 252 254 255 256 257 257 257 256 254 252 250 250 250
16 19 23 29 35 40 47 59 163 205 211 213 212 213 214 216 217 217 218 219 220 220 221 222 223 224 225 227 229 232 234 236 237 239 240 241 242 244 244 244 244 244 244 244 245 246 248 249 250 252 253 254 255 256 256 256 255 254 253 251 249 249 249
12 13 16 20 24 30 39 47 59 114 186 204 210 214 216 218 219 219 219 220 221 221 222 223 224 224 225 227 229 232 235 236 237 239 240 240 242 243 244 245 245 244 245 245 246 247 248 249 251 252 253 254 255 256 256 255 254 253 251 249 248 248 249
13 10 9 13 18 23 31 40 49 67 107 170 198 209 215 218 221 221 221 221 222 223 224 224 225 226 227 228 231 232 234 236 237 239 240 241 242 244 244 245 245 245 246 247 247 247 248 249 250 251 252 254 255 256 256 255 254 253 251 249 248 248 249
14 8 5 7 11 17 23 28 35 43 56 82 147 194 208 215 219 221 222 222 223 224 225 226 227 228 230 230 232 233 234 235 237 238 240 241 242 244 245 245 246 246 246 247 247 248 248 248 249 250 251 252 254 255 256 256 255 254 252 250 249 249 249
14 9 5 3 5 12 16 18 20 25 35 47 65 131 189 208 214 218 221 222 224 224 225 228 230 231 232 232 233 234 235 236 237 238 240 242 243 245 246 246 246 246 246 247 248 248 249 248 249 249 250 250 252 253 254 255 255 253 252 250 249 249 250
12 8 4 1 1 6 11 13 14 15 20 26 32 59 105 181 202 211 218 220 222 223 223 226 229 231 233 235 235 236 237 237 238 239 241 242 244 245 246 246 247 247 248 248 248 247 248 248 248 248 249 249 250 252 253 254 253 252 251 250 249 249 250
9 6 2 359 359 1 4 8 9 5 3 3 3 21 53 108 179 195 210 215 218 221 223 225 226 227 230 233 235 238 238 239 239 240 241 243 244 245 245 246 247 248 249 249 248 247 247 247 247 247 248 249 250 251 252 252 252 251 251 250 248 248 249
4 4 2 358 356 357 359 2 3 360 356 348 339 346 11 28 126 175 194 209 215 218 221 225 228 229 231 233 235 236 238 239 240 241 242 244 244 244 245 246 247 248 250 249 249 248 248 247 247 247 248 248 249 250 251 251 251 251 250 249 248 248 249
359 359 358 354 350 352 355 357 359 359 356 346 330 321 326 348 13 130 172 196 212 216 219 223 228 232 234 235 238 240 240 240 240 241 243 244 244 245 245 246 247 249 250 249 248 248 247 246 246 246 247 248 248 249 250 250 250 250 250 249 248 249 249
355 354 352 349 346 347 350 352 357 1 357 352 342 322 306 313 334 346 162 168 203 212 216 221 227 232 235 236 237 241 243 243 242 241 243 245 246 246 246 247 248 249 250 249 249 249 249 248 248 247 246 246 247 248 249 249 249 249 250 249 249 249 249
350 350 345 342 342 343 345 346 349 354 355 352 351 344 323 308 309 307 280 252 246 212 211 219 226 231 236 238 237 238 242 245 245 243 243 246 248 249 248 249 250 250 250 250 250 250 250 250 248 248 247 247 247 248 249 249 249 249 249 249 248 249 249
349 347 341 339 338 337 339 340 340 343 347 348 346 344 341 334 322 305 265 250 268 275 227 224 230 230 232 235 236 236 237 241 245 246 246 248 251 251 250 250 250 250 250 250 250 250 250 249 248 248 249 248 248 248 248 249 249 249 248 247 247 248 249
348 343 338 340 339 334 335 337 337 338 340 341 341 339 337 336 335 330 294 246 247 255 242 229 232 234 230 228 229 232 233 234 239 245 248 251 253 253 251 250 250 250 250 250 250 249 249 248 248 249 249 250 249 249 249 250 250 250 248 247 246 246 248
346 343 337 339 340 337 334 334 336 336 334 335 337 337 335 333 331 329 321 293 267 262 255 244 243 247 243 236 233 236 237 235 236 239 245 249 251 250 250 250 249 249 250 250 249 249 249 249 249 249 250 250 250 250 250 250 251 251 250 249 248 247 247
341 340 338 338 337 336 334 332 332 334 333 333 334 335 335 332 329 325 321 315 301 289 280 266 258 259 257 248 242 240 241 241 240 238 240 245 247 247 248 248 248 248 248 248 248 248 248 249 249 249 249 249 249 249 250 251 251 251 252 251 250 249 248
334 334 334 334 333 332 331 328 329 332 333 332 332 334 335 332 329 326 322 317 311 305 300 289 275 268 264 260 255 247 243 242 241 239 239 240 243 244 245 245 246 247 247 246 246 246 247 248 248 247 247 248 249 249 249 250 251 252 252 253 252 252 251
327 329 329 328 330 330 329 328 327 330 332 332 331 332 333 332 330 328 324 321 318 313 309 305 296 284 272 265 264 259 252 246 241 239 238 237 237 239 241 242 243 244 245 245 244 245 246 248 247 246 246 247 248 249 250 250 251 252 253 253 253 253 252
315 322 326 325 325 326 327 326 326 327 330 331 331 332 333 333 331 328 325 325 323 317 313 310 307 301 290 276 269 266 262 255 247 242 239 236 234 235 237 239 241 242 243 243 244 245 246 247 247 246 246 247 248 249 250 251 251 252 253 253 253 253 253
305 312 320 323 324 325 324 322 321 324 329 332 332 332 332 332 330 327 325 325 323 318 314 313 311 307 300 287 275 271 267 262 257 251 242 235 233 234 236 238 240 241 242 243 243 244 244 245 245 245 245 246 246 247 248 250 252 253 253 252 252 252 252
298 303 310 315 320 322 320 319 316 317 325 332 334 334 334 331 328 325 323 322 321 317 315 314 312 310 305 293 279 275 272 267 264 260 248 238 234 235 235 236 236 238 241 244 245 245 245 245 245 246 247 247 247 247 247 248 251 252 251 251 252 253 252
292 298 302 306 312 314 315 315 314 312 320 332 336 338 338 333 327 324 322 320 318 315 314 313 311 309 308 302 287 279 277 274 271 266 256 246 241 241 240 240 239 240 243 248 250 250 250 250 249 250 252 251 249 248 247 248 252 255 253 253 254 255 254
286 293 297 299 303 307 309 309 310 312 318 327 334 342 347 341 332 327 322 319 316 313 311 310 308 306 307 308 300 287 281 278 276 271 261 250 246 247 246 244 243 244 247 251 253 253 254 253 252 255 257 255 253 253 253 256 261 262 259 256 255 255 255
277 284 292 294 296 301 304 304 304 308 313 319 327 336 345 346 341 334 327 321 316 311 307 306 305 304 305 308 308 300 286 279 280 279 272 258 251 250 249 246 244 244 246 248 250 251 252 252 252 254 256 256 257 258 259 261 263 262 259 257 255 254 255
267 273 281 284 288 294 299 297 297 301 308 314 315 316 324 334 340 339 334 327 320 314 307 302 301 302 304 307 309 305 292 280 277 279 277 267 256 250 249 247 246 246 246 247 248 248 250 251 251 251 253 256 257 257 259 260 259 258 257 257 255 254 254